Location: Newcastle
(43.9170°N, 78.5830°W)
Time: 18:20:02
(UTC-04:00)

Daily predictions for brighter satellites

Satellite Brightness Start Highest point End
(mag) Time Altitude Azimuth Time Altitude Azimuth Time Altitude Azimuth
Meteor 2-14 Rocket 4.5 18:48:21 10° S 18:54:20 63° E 19:00:21 10° NNE
SPOT 3 Rocket 3.8 18:51:34 10° SE 18:56:30 46° ENE 19:01:29 10° N
GP-B 3.4 18:53:30 10° NNE 18:57:46 45° E 19:02:01 10° SSE
Cosmos 2056 Rocket 3.5 18:54:08 10° NNW 18:59:30 78° ENE 19:04:45 10° SSE
SL-14 R/B 3.6 18:56:45 10° NNW 19:00:36 71° W 19:04:25 10° S
Cosmos-2242 3.0 18:58:04 10° S 19:02:19 87° W 19:06:37 10° N
METEOR-M 4.2 18:58:40 10° SSE 19:03:55 62° ENE 19:09:12 10° N
Tiangong 1 3.5 19:03:42 10° WSW 19:05:28 16° SSW 19:07:14 10° SSE
ALOS 2.7 19:06:10 10° SE 19:10:31 40° ENE 19:14:54 10° N
USA 267 4.5 19:06:13 10° ENE 19:11:00 21° ESE 19:15:45 10° S
SKYMED 2 3.6 19:08:07 10° NNE 19:12:26 58° E 19:16:42 10° S
Cosmos 2151 3.2 19:08:56 10° N 19:13:07 48° ENE 19:17:13 10° SSE
MONITOR-E 4.1 19:10:13 10° SSE 19:13:16 65° ENE 19:16:19 10° N
CZ-2C R/B 4.2 19:10:22 10° N 19:14:53 64° WNW 19:19:18 10° SSW
NOAA 12 4.2 19:11:46 10° SSE 19:16:54 54° ENE 19:22:05 10° N
Cosmos 1452 Rocket 3.8 19:12:13 10° N 19:17:18 46° ENE 19:22:20 10° SE
GRACE-2 4.5 19:15:26 10° SSE 19:17:44 29° E 19:20:02 10° NNE
Cosmos 1743 Rocket 3.5 19:13:37 10° N 19:18:00 72° E 19:22:23 10° SSE
SL-24 R/B - RUBIN 2 4.0 19:13:13 10° NNW 19:18:05 49° NE 19:22:27 10° SE
COSMOS 2428 3.6 19:13:40 10° N 19:18:35 29° NE 19:23:13 11° ESE
GRACE-1 4.3 19:17:36 10° SSE 19:19:58 32° E 19:22:20 10° NNE
Cosmos 2333 Rocket 3.7 19:17:44 10° N 19:21:44 19° NE 19:24:24 14° ENE
Cosmos 2360 Rocket 2.2 19:16:54 10° NNW 19:22:32 62° ENE 19:28:08 10° SE
BREEZE-M DEB (TANK) 1.5 19:20:26 10° SW 19:22:45 63° SSE 19:23:54 21° ENE
Abrixas rocket 2.6 19:20:56 10° W 19:24:11 57° NNW 19:26:39 16° ENE
Cosmos 1315 Rocket 3.2 19:21:11 10° N 19:25:03 40° ENE 19:28:55 10° SSE
Cosmos 1626 2.1 19:21:24 10° N 19:25:10 88° E 19:28:54 10° S
Cosmos 1833 4.3 19:20:51 10° S 19:26:25 57° ESE 19:31:57 10° NNE
Cosmos 1842 Rocket 3.5 19:22:29 10° S 19:26:55 70° E 19:31:22 10° NNE
Cosmos 2322 Rocket 3.2 19:23:50 10° NW 19:29:14 50° WSW 19:34:37 10° S
Cosmos 2219 4.3 19:26:43 10° SSE 19:31:00 22° E 19:34:36 13° ENE
DELTA 2 R/B (1) 4.0 19:26:59 10° W 19:32:26 55° S 19:36:42 17° ESE
Cosmos 2221 3.0 19:30:14 10° SSE 19:34:10 36° E 19:38:10 10° NNE
Meteor 2-1 Rocket 4.2 19:30:00 10° S 19:35:42 69° E 19:41:35 10° NNE
Resurs 01 Rocket 3.3 19:36:11 16° ENE 19:36:11 16° ENE 19:38:39 10° NNE
Cosmos 2366 rocket 4.3 19:33:47 10° SSW 19:40:00 73° W 19:46:12 10° N
Cosmos 1500 Rocket 3.5 19:35:40 10° N 19:40:02 86° W 19:44:22 10° S
Aureole 2 Rocket 4.3 19:38:28 10° NNE 19:40:50 18° NE 19:40:50 18° NE
EO 1 Del DPAF 4.3 19:38:20 10° N 19:42:03 47° WNW 19:45:44 10° SW
Cosmos 2058 3.0 19:38:06 10° N 19:42:18 81° W 19:46:27 10° S
RESURS DK-1 2.2 19:38:16 10° NNW 19:42:25 79° ENE 19:46:33 10° SSE
Cosmos 921 Rocket 3.0 19:38:17 10° NNW 19:42:44 63° ENE 19:47:05 10° SSE
Cosmos 44 4.0 19:43:17 10° SSE 19:46:51 25° ESE 19:46:58 25° ESE
USA 234 4.2 19:43:40 17° ENE 19:47:51 33° NNE 19:53:34 10° NW
Lacrosse 5 rocket 3.6 19:46:17 10° WNW 19:49:34 20° NNW 19:52:45 10° NNE
Cosmos 2322 3.6 19:44:40 10° NNW 19:50:26 82° ENE 19:56:09 10° SSE
SJ-6B 3.1 19:50:20 29° ESE 19:51:34 39° ENE 19:55:03 10° N
FENGYUN 3A 3.8 19:50:42 10° S 19:56:06 79° WSW 20:01:33 10° NNW
Atlas Centaur 2 3.9 19:54:45 10° SW 19:58:19 19° S 20:01:19 13° SE
Iridium 4 Rocket 3.6 19:53:08 10° S 19:58:33 69° E 20:04:21 10° N
Cosmos 1048 Rocket 4.2 19:54:19 10° S 19:59:12 45° ESE 20:04:04 10° NNE
Thor Agena Rocket 3.4 19:54:39 10° NNE 19:59:46 68° ESE 20:04:47 10° S
COSMO-SKYMED 1 3.8 19:56:20 10° N 20:00:27 42° WNW 20:04:32 10° SW
Cosmos 44 Rocket 3.7 19:57:19 10° S 20:01:36 35° ESE 20:01:58 35° ESE
FREGAT/IRIS 2.4 20:00:46 42° SSE 20:01:39 79° ENE 20:04:40 10° N
Cosmos 1420 Rocket 3.9 19:58:26 10° NNW 20:03:47 85° ENE 20:09:05 10° SSE
Gbstr 26 Del rocket 3.9 19:58:51 10° NW 20:03:49 55° NNE 20:06:21 32° E
Envisat 3.7 20:09:17 32° ENE 20:09:17 32° ENE 20:13:39 10° N
Cosmos 2219 Rocket 2.5 20:07:08 10° NNW 20:12:31 45° ENE 20:13:47 39° E
Sich 1 3.3 20:09:26 10° N 20:13:24 45° ENE 20:13:24 45° ENE
APEX 4.4 20:11:21 10° SSW 20:12:53 23° S 20:12:53 23° S
Cosmos 1000 Rocket 4.4 20:10:43 10° N 20:17:00 90° E 20:23:12 10° S
Cosmos 1821 Rocket 3.8 20:11:08 10° S 20:17:15 75° E 20:23:30 10° NNE
Cosmos 1805 Rocket 3.4 20:13:56 10° N 20:18:19 80° E 20:20:41 27° SSE
Cosmos 1934 Rocket 3.9 20:18:32 10° S 20:24:47 65° E 20:31:07 10° NNE
SL-8 R/B 3.6 20:20:30 10° WSW 20:25:20 89° NNW 20:26:18 58° ENE
Cosmos 2239 Rocket 4.3 20:19:33 10° S 20:25:41 86° E 20:31:53 10° N
Cosmos 2333 4.1 20:20:15 10° NNW 20:26:00 85° ENE 20:28:45 33° SSE
Cosmos 158 Rocket 3.9 20:21:25 10° SSW 20:26:27 85° WNW 20:31:40 10° NNE
Cosmos 1666 Rocket 3.7 20:22:33 10° N 20:26:18 56° NE 20:26:18 56° NE
Cosmos 1908 4.5 20:23:18 10° SSW 20:27:02 43° WNW 20:30:47 10° N
Cosmos 1726 4.1 20:28:11 10° S 20:37:28 - N 20:29:16 18° SSW
H-2A R/B 3.7 20:31:12 14° S 20:34:20 48° W 20:38:08 10° NNW
HJ-1C 4.2 20:35:00 49° NW 20:35:00 49° NW 20:37:49 10° NNW
Cosmos 1633 Rocket 3.7 20:31:46 10° N 20:34:51 42° NNE 20:34:51 42° NNE
BREEZE M DEB (TANK) 3.5 20:36:42 10° WNW 20:39:02 31° NW 20:39:02 31° NW
Cosmos 1269 Rocket 3.9 20:36:34 10° SSW 20:41:51 87° WNW 20:46:03 17° NNE
Cosmos 2237 Rocket 2.8 20:36:45 10° NNW 20:41:26 41° NE 20:41:26 41° NE
In-Cosmos 22 Rocket 4.1 20:37:38 10° N 20:43:20 71° ENE 20:43:57 65° ESE
Cosmos 2123 Rocket 3.8 20:38:01 10° N 20:44:17 84° E 20:47:27 32° S
CZ-4C R/B 2.0 20:41:19 10° SSW 20:46:18 72° SE 20:46:18 72° SE
SL-16 R/B 3.8 20:46:18 10° N 20:49:02 21° NNE 20:49:02 21° NNE
Cosmos 1605 Rocket 3.8 20:45:18 10° S 20:51:22 71° E 20:57:26 10° NNE
Cosmos 2098 Rocket 4.2 20:47:29 10° SSW 20:51:39 49° WNW 20:56:59 10° N
USA 267 3.1 20:53:05 55° ENE 20:54:39 79° SE 21:01:11 10° SW
COSMOS 2428 3.5 20:57:37 10° NW 21:03:04 47° WSW 21:05:17 31° SSW
BREEZE-M DEB (TANK) 3.2 20:56:30 10° W 21:03:07 61° NW 21:03:07 61° NW
Cosmos 1980 4.1 20:59:39 10° NNW 21:04:03 52° N 21:04:03 52° N
Cosmos 2333 Rocket 2.2 21:00:59 10° NNW 21:06:27 80° WNW 21:06:27 80° WNW
Resurs 01 Rocket 3.1 21:13:47 33° NW 21:13:47 33° NW 21:16:22 10° NNW
Spot 2 Rocket 4.2 21:14:31 50° NW 21:14:31 50° NW 21:18:21 10° NNW
Cosmos 2219 3.7 21:09:01 10° SW 21:14:41 58° WNW 21:16:40 38° N
Lacrosse 5 rocket 4.3 21:28:01 10° NNW 21:28:40 12° NNW 21:28:40 12° NNW
USA 234 3.4 21:31:01 62° N 21:31:01 62° N 21:36:43 10° NW
Cosmos 2219 Rocket 3.9 21:51:32 10° NW 21:55:33 27° W 21:55:33 27° W
Cosmos 2237 Rocket 4.4 22:21:09 10° NW 22:23:17 20° WNW 22:23:17 20° WNW
